Location: Kalberh�ni
(46.4610°N, 7.2453°E)
Time: 14:08:26
(UTC+00:00)

Lacrosse 4 Rocket - Pass Details

Date: 19 October 2021
Orbit: 537 x 619 km, 68.0° (Epoch: 04 December)

Event Time Altitude Azimuth Distance (km) Brightness Sun altitude
Rises 20:22:58 0° 313° (NW) 2,815 5.8 -38.6°
Reaches altitude 10° 20:25:50 10° 293° (WNW) 1,927 4.8 -39.0°
Enters shadow 20:25:56 10° 292° (WNW) 1,901 4.7 -39.0°
